EW3281 Weather Reports


Display with metric or nautical units.
time (UTC)temp
F
wind
direction
speed
MPH
gust
MPH
rain 1hr
in
rain 24hr
in
rain mn
in
humidity
%
barometer
mb
20220528021052 63 72 0.0 5.0 0.00 0.03 0.03 97 1008.9
20220528020553 63 61 0.0 5.0 0.00 0.03 0.03 97 1009.1
20220528020053 63 70 0.0 1.0 0.00 0.03 0.03 97 1009.1
20220528015053 63 51 0.0 5.0 0.00 0.03 0.03 97 1009.0
20220528014652 63 295 0.0 5.0 0.00 0.03 0.03 97 1009.0
20220528014054 63 35 0.0 5.0 0.00 0.03 0.03 97 1009.0
20220528013551 63 84 0.0 5.0 0.00 0.03 0.03 97 1008.8
20220528013052 63 82 0.0 3.0 0.00 0.03 0.03 97 1008.7
20220528012551 63 60 0.0 3.0 0.00 0.03 0.03 97 1008.5
20220528012050 63 70 0.0 3.0 0.00 0.03 0.03 97 1008.7
20220528011549 63 37 0.0 3.0 0.00 0.03 0.03 97 1008.8
20220528011048 63 94 0.0 3.0 0.00 0.03 0.03 97 1008.9
20220528010548 63 49 0.0 2.0 0.00 0.03 0.03 97 1009.0
20220528010050 63 60 0.0 6.0 0.00 0.03 0.03 97 1008.9
20220528005046 63 32 0.0 3.0 0.00 0.03 0.03 97 1009.1
20220528004614 63 49 0.0 3.0 0.00 0.03 0.03 97 1009.1
20220528004046 63 54 0.0 5.0 0.00 0.03 0.03 96 1009.1
20220528003546 63 60 1.0 5.0 0.00 0.03 0.03 96 1009.0
20220528003046 63 59 0.0 2.0 0.00 0.03 0.03 96 1009.1
20220528002547 63 54 0.0 2.0 0.00 0.03 0.03 96 1009.2
20220528002048 63 56 0.0 1.0 0.00 0.03 0.03 96 1009.5
20220528001545 63 120 0.0 1.0 0.00 0.03 0.03 95 1009.7
20220528001047 63 59 0.0 2.0 0.00 0.03 0.03 95 1009.8
20220528000543 63 46 0.0 2.0 0.00 0.03 0.03 95 1009.9
20220528000043 63 78 0.0 2.0 0.00 0.03 0.03 95 1009.8
20220527235043 63 57 0.0 2.0 0.00 0.03 0.03 94 1009.9
20220527234543 63 319 0.0 2.0 0.00 0.03 0.03 94 1010.0
20220527234043 63 284 0.0 2.0 0.00 0.03 0.03 94 1010.1
20220527233543 64 77 0.0 2.0 0.00 0.03 0.03 94 1010.1
20220527233043 64 77 0.0 2.0 0.00 0.03 0.03 93 1010.1
20220527232542 64 89 0.0 2.0 0.00 0.03 0.03 93 1010.3
20220527232043 64 62 0.0 2.0 0.00 0.03 0.03 93 1010.1
20220527231546 64 55 0.0 2.0 0.00 0.03 0.03 93 1010.3
20220527231045 64 64 0.0 2.0 0.00 0.03 0.03 93 1010.3
20220527230541 64 58 0.0 4.0 0.00 0.03 0.03 93 1010.3
20220527230042 64 60 0.0 4.0 0.00 0.03 0.03 92 1010.4
20220527225043 65 120 0.0 3.0 0.00 0.03 0.03 93 1010.3
20220527224543 65 53 0.0 2.0 0.00 0.03 0.03 93 1010.2
20220527224045 65 58 0.0 2.0 0.00 0.03 0.03 93 1010.2
20220527223544 65 69 0.0 2.0 0.00 0.03 0.03 93 1010.1
20220527223119 65 60 0.0 2.0 0.00 0.03 0.03 93 1010.2
20220527222547 65 279 0.0 2.0 0.00 0.03 0.03 93 1010.2
20220527222044 65 83 0.0 2.0 0.00 0.03 0.03 93 1010.3
20220527221540 65 65 0.0 2.0 0.00 0.03 0.03 93 1010.4
20220527221042 65 110 0.0 3.0 0.00 0.03 0.03 93 1010.4
20220527220539 65 70 0.0 3.0 0.00 0.03 0.03 93 1010.5
20220527220040 65 56 0.0 3.0 0.00 0.03 0.03 93 1010.5
20220527215041 65 102 0.0 3.0 0.00 0.03 0.03 92 1010.7
20220527214541 66 49 0.0 2.0 0.00 0.03 0.03 92 1010.8
20220527214038 66 348 0.0 2.0 0.00 0.03 0.03 92 1010.8
20220527213537 66 69 0.0 2.0 0.00 0.03 0.03 91 1010.9
20220527213037 66 72 0.0 3.0 0.00 0.03 0.03 91 1011.0
20220527212538 67 63 0.0 3.0 0.00 0.03 0.03 90 1011.0
20220527212038 67 72 0.0 4.0 0.00 0.03 0.03 90 1011.1
20220527211541 68 320 0.0 5.0 0.00 0.03 0.03 89 1010.9
20220527211037 68 87 0.0 5.0 0.00 0.03 0.03 89 1011.0
20220527210537 68 235 0.0 4.0 0.00 0.03 0.03 88 1011.0
20220527210036 68 290 1.0 5.0 0.00 0.03 0.03 88 1011.0
20220527205037 69 142 0.0 3.0 0.00 0.03 0.03 87 1010.9
20220527204545 69 98 0.0 4.0 0.00 0.03 0.03 87 1010.8
20220527204037 69 256 0.0 2.0 0.00 0.03 0.03 86 1010.8
20220527203537 69 106 0.0 3.0 0.00 0.03 0.03 85 1010.8
20220527203036 70 67 0.0 3.0 0.00 0.03 0.03 84 1010.8
20220527202536 70 51 0.0 6.0 0.00 0.03 0.03 83 1010.7
20220527202035 71 151 1.0 6.0 0.00 0.03 0.03 81 1010.7
20220527201540 72 83 0.0 5.0 0.00 0.03 0.03 81 1010.7
20220527201036 72 209 0.0 4.0 0.00 0.03 0.03 80 1010.7
20220527200542 73 70 1.0 3.0 0.00 0.03 0.03 80 1010.7
20220527200041 73 37 0.0 7.0 0.00 0.03 0.03 80 1010.7
20220527195034 74 94 2.0 6.0 0.00 0.03 0.03 78 1010.6
20220527194607 73 46 0.0 4.0 0.00 0.03 0.03 79 1010.7
20220527194033 73 207 1.0 4.0 0.00 0.03 0.03 79 1010.6
20220527193533 74 109 0.0 4.0 0.00 0.03 0.03 79 1010.6
20220527193032 74 72 1.0 3.0 0.00 0.03 0.03 78 1010.7
20220527192532 74 61 0.0 4.0 0.00 0.03 0.03 79 1010.7
20220527192031 73 90 1.0 5.0 0.00 0.03 0.03 79 1010.8
20220527191530 73 90 0.0 6.0 0.00 0.03 0.03 80 1010.9
20220527191030 73 84 0.0 4.0 0.00 0.03 0.03 80 1010.9
20220527190531 73 76 0.0 2.0 0.00 0.03 0.03 80 1010.9
20220527190030 73 66 0.0 3.0 0.00 0.03 0.03 80 1010.9
20220527185029 73 70 0.0 4.0 0.00 0.03 0.03 79 1011.1
20220527184531 73 101 0.0 3.0 0.00 0.03 0.03 80 1011.2
20220527184027 74 69 0.0 3.0 0.00 0.03 0.03 79 1011.2
20220527183529 74 101 0.0 4.0 0.00 0.03 0.03 81 1011.3
20220527183030 73 83 0.0 4.0 0.00 0.03 0.03 81 1011.3
20220527182527 73 122 1.0 4.0 0.00 0.03 0.03 80 1011.4
20220527182024 73 84 0.0 4.0 0.00 0.03 0.03 82 1011.5
20220527181524 72 87 1.0 4.0 0.00 0.03 0.03 83 1011.5
20220527181021 71 228 0.0 6.0 0.00 0.03 0.03 85 1011.5
20220527180519 71 236 0.0 6.0 0.00 0.03 0.03 85 1011.6
20220527180019 71 86 0.0 4.0 0.00 0.03 0.03 84 1011.7
20220527175018 71 121 0.0 0.0 0.00 0.03 0.03 84 1011.8
20220527174517 71 121 0.0 4.0 0.00 0.03 0.03 83 1011.8
20220527174016 71 230 0.0 5.0 0.00 0.03 0.03 85 1011.8
20220527173521 71 205 1.0 5.0 0.00 0.03 0.03 84 1011.9
20220527173023 71 72 0.0 5.0 0.00 0.03 0.03 85 1011.8
20220527172515 71 199 1.0 5.0 0.00 0.03 0.03 84 1011.8
20220527172014 71 132 0.0 6.0 0.00 0.03 0.03 85 1011.9
20220527171519 71 89 0.0 6.0 0.00 0.03 0.03 86 1011.8
20220527171012 70 77 0.0 3.0 0.00 0.03 0.03 87 1012.0
20220527170512 70 80 0.0 3.0 0.00 0.03 0.03 87 1012.1
20220527170019 70 79 1.0 5.0 0.00 0.03 0.03 87 1012.1
20220527165011 70 60 0.0 2.0 0.00 0.03 0.03 90 1012.2
20220527164509 69 83 0.0 4.0 0.00 0.03 0.03 90 1012.3
20220527164008 69 315 0.0 5.0 0.00 0.03 0.03 90 1012.4
20220527163510 69 87 0.0 5.0 0.00 0.03 0.03 91 1012.4
20220527163021 69 73 1.0 5.0 0.00 0.03 0.03 90 1012.4
20220527162507 69 236 0.0 3.0 0.00 0.03 0.03 92 1012.5
20220527162005 68 131 0.0 3.0 0.00 0.03 0.03 94 1012.5
20220527161504 68 275 0.0 4.0 0.00 0.03 0.03 94 1012.6
20220527161003 67 84 0.0 5.0 0.00 0.03 0.03 95 1012.7
20220527160501 67 262 1.0 7.0 0.00 0.03 0.03 96 1012.8
20220527160002 67 231 0.0 7.0 0.00 0.03 0.03 96 1012.9
20220527155700 66 76 0.0 3.0 0.00 0.03 0.03 97 1012.9
20220527155100 66 85 0.0 3.0 0.00 0.03 0.03 97 1012.9
20220527154559 66 265 0.0 3.0 0.00 0.03 0.03 98 1013.0
20220527154101 65 57 0.0 3.0 0.00 0.03 0.03 97 1013.0
20220527153556 65 44 0.0 2.0 0.00 0.03 0.03 97 1013.1
20220527153101 65 105 0.0 2.0 0.00 0.03 0.03 98 1013.1
20220527152559 65 97 0.0 2.0 0.00 0.03 0.03 97 1013.1
20220527152054 65 331 0.0 2.0 0.00 0.03 0.03 97 1013.2
20220527151555 65 207 0.0 2.0 0.00 0.03 0.03 97 1013.2
20220527151053 65 88 0.0 6.0 0.00 0.03 0.03 97 1013.3
20220527150555 65 77 0.0 6.0 0.00 0.03 0.03 97 1013.2
20220527150059 65 70 0.0 3.0 0.00 0.03 0.03 97 1013.2
20220527145653 65 61 0.0 3.0 0.00 0.03 0.03 97 1013.3
20220527145052 65 88 0.0 3.0 0.00 0.03 0.03 97 1013.3
20220527144554 65 41 0.0 3.0 0.00 0.03 0.03 98 1013.4
20220527144051 65 359 0.0 3.0 0.00 0.03 0.03 98 1013.4
20220527143549 64 239 0.0 3.0 0.00 0.03 0.03 98 1013.5
20220527143050 64 42 0.0 3.0 0.00 0.03 0.03 98 1013.5
20220527142550 64 68 0.0 2.0 0.00 0.03 0.03 98 1013.5
20220527142047 64 288 0.0 3.0 0.00 0.03 0.03 98 1013.5
20220527141549 64 71 0.0 3.0 0.00 0.03 0.03 98 1013.6
20220527141046 64 117 0.0 1.0 0.00 0.03 0.03 98 1013.6
20220527140546 64 18 0.0 1.0 0.00 0.03 0.03 98 1013.7
20220527140054 64 316 0.0 2.0 0.00 0.03 0.03 98 1013.7
20220527135645 64 62 0.0 2.0 0.00 0.03 0.03 98 1013.7
20220527135045 64 260 0.0 0.0 0.00 0.03 0.03 98 1013.7
20220527134545 64 331 0.0 1.0 0.00 0.03 0.03 98 1013.7
20220527134047 64 52 0.0 2.0 0.00 0.03 0.03 98 1013.7
20220527133544 64 109 0.0 2.0 0.00 0.03 0.03 98 1013.7
20220527133044 63 63 0.0 3.0 0.00 0.03 0.03 98 1013.7
20220527132543 63 64 0.0 3.0 0.00 0.03 0.03 98 1013.8
20220527132047 63 288 0.0 2.0 0.00 0.03 0.03 98 1013.9
20220527131546 63 293 0.0 3.0 0.00 0.03 0.03 98 1013.9
20220527131042 63 66 0.0 4.0 0.00 0.03 0.03 98 1014.0
20220527130540 63 182 0.0 4.0 0.00 0.03 0.03 97 1014.0
20220527130040 63 58 0.0 3.0 0.00 0.03 0.03 97 1014.2
20220527125640 63 79 0.0 3.0 0.00 0.03 0.03 98 1014.0
20220527125039 63 56 0.0 2.0 0.00 0.03 0.03 98 1014.1
20220527124548 63 23 0.0 3.0 0.00 0.03 0.03 98 1014.2
20220527124039 63 75 0.0 2.0 0.00 0.03 0.03 98 1014.2
20220527123541 63 49 0.0 2.0 0.00 0.03 0.03 98 1014.1
20220527123038 63 231 0.0 2.0 0.00 0.03 0.03 98 1014.2
20220527122537 63 69 0.0 1.0 0.00 0.03 0.03 98 1014.2
20220527122036 63 49 0.0 2.0 0.00 0.03 0.03 98 1014.3
20220527121543 63 153 0.0 4.0 0.00 0.03 0.03 98 1014.4
20220527121035 63 37 0.0 4.0 0.00 0.03 0.03 98 1014.5
20220527120537 62 51 0.0 2.0 0.00 0.03 0.03 97 1014.5
20220527120036 62 349 0.0 2.0 0.00 0.03 0.03 97 1014.6
20220527115634 62 78 0.0 2.0 0.00 0.03 0.03 97 1014.6
20220527115035 62 58 0.0 2.0 0.00 0.03 0.03 97 1014.6
20220527114534 62 57 0.0 2.0 0.00 0.03 0.03 97 1014.6
20220527114034 62 63 0.0 2.0 0.00 0.03 0.03 97 1014.6
20220527113534 62 335 0.0 2.0 0.00 0.03 0.03 97 1014.6
20220527113033 62 322 0.0 2.0 0.00 0.03 0.03 97 1014.7
20220527112633 62 53 0.0 1.0 0.00 0.03 0.03 97 1014.7
20220527112032 62 55 0.0 3.0 0.00 0.03 0.03 97 1014.8
20220527111534 62 49 0.0 3.0 0.00 0.03 0.03 97 1014.9
20220527111035 62 20 0.0 3.0 0.00 0.03 0.03 98 1014.9
20220527110531 62 66 0.0 1.0 0.00 0.03 0.03 97 1014.8
20220527110032 62 23 0.0 1.0 0.00 0.03 0.03 97 1014.8
20220527105630 62 66 0.0 1.0 0.00 0.03 0.03 97 1015.0
20220527105032 62 66 0.0 1.0 0.00 0.03 0.03 97 1015.0
20220527104530 62 72 0.0 1.0 0.00 0.03 0.03 97 1014.9
20220527104030 62 124 0.0 1.0 0.00 0.03 0.03 97 1014.9
20220527103530 62 57 0.0 3.0 0.00 0.03 0.03 97 1014.9
20220527103030 62 58 0.0 3.0 0.00 0.03 0.03 97 1014.9
20220527102535 62 119 0.0 3.0 0.00 0.03 0.03 97 1014.9
20220527102031 62 52 0.0 2.0 0.00 0.03 0.03 97 1014.9
20220527101528 62 18 0.0 2.0 0.00 0.03 0.03 97 1015.0
20220527101029 62 75 0.0 4.0 0.00 0.03 0.03 97 1015.0
20220527100530 62 19 0.0 4.0 0.01 0.03 0.03 97 1015.0
20220527100031 62 241 0.0 1.0 0.01 0.03 0.03 97 1015.0
20220527095627 62 226 0.0 2.0 0.01 0.03 0.03 97 1015.0
20220527095026 62 307 0.0 1.0 0.01 0.03 0.03 97 1015.0
20220527094530 62 7 0.0 1.0 0.01 0.03 0.03 97 1015.0
20220527094026 62 293 0.0 1.0 0.01 0.03 0.03 97 1015.0
20220527093524 62 357 0.0 1.0 0.01 0.03 0.03 97 1015.1
20220527093024 62 296 0.0 1.0 0.01 0.03 0.03 97 1015.1
20220527092523 61 269 0.0 1.0 0.01 0.03 0.03 97 1015.1
20220527092026 61 32 0.0 1.0 0.01 0.03 0.03 97 1015.1
20220527091523 61 5 0.0 0.0 0.01 0.03 0.03 97 1015.2
20220527091023 61 3 0.0 0.0 0.02 0.03 0.03 97 1015.1
20220527090524 61 61 0.0 0.0 0.01 0.02 0.02 97 1015.2
20220527090023 61 61 0.0 1.0 0.01 0.02 0.02 97 1015.2
20220527085621 61 30 0.0 1.0 0.01 0.02 0.02 97 1015.2
20220527085022 61 30 0.0 1.0 0.01 0.02 0.02 97 1015.3
20220527084521 61 58 0.0 1.0 0.02 0.02 0.02 97 1015.3
20220527084021 61 59 0.0 0.0 0.02 0.02 0.02 97 1015.5
20220527083520 61 58 0.0 0.0 0.02 0.02 0.02 97 1015.5
20220527083019 61 58 0.0 0.0 0.02 0.02 0.02 97 1015.5
20220527082620 61 58 0.0 0.0 0.02 0.02 0.02 97 1015.5
20220527082018 61 58 0.0 0.0 0.02 0.02 0.02 97 1015.5
20220527081518 61 307 0.0 0.0 0.02 0.02 0.02 96 1015.6
20220527081018 61 307 0.0 0.0 0.01 0.01 0.01 96 1015.6
20220527080517 61 299 0.0 0.0 0.01 0.01 0.01 96 1015.6
20220527080016 61 299 0.0 0.0 0.01 0.01 0.01 96 1015.7
20220527075618 61 300 0.0 0.0 0.01 0.01 0.01 96 1015.7
20220527075015 61 297 0.0 0.0 0.01 0.01 0.01 96 1015.8
20220527074516 61 297 0.0 1.0 0.01 0.01 0.01 96 1015.8
20220527074014 61 274 0.0 1.0 0.00 0.00 0.00 96 1015.8
20220527073514 61 46 0.0 1.0 0.00 0.00 0.00 96 1015.8
20220527073013 61 56 0.0 1.0 0.00 0.00 0.00 96 1015.8
20220527072513 61 53 0.0 1.0 0.00 0.00 0.00 96 1015.9
20220527072017 61 51 0.0 1.0 0.00 0.00 0.00 96 1015.8
20220527071511 61 58 0.0 1.0 0.00 0.00 0.00 95 1016.0
20220527071011 61 58 0.0 1.0 0.00 0.00 0.00 95 1016.1
20220527070511 61 58 0.0 1.0 0.00 0.00 0.00 95 1016.1
20220527070010 61 61 0.0 0.0 0.00 0.00 0.00 95 1016.2
20220527065610 61 49 0.0 1.0 0.00 0.00 0.00 95 1016.3
20220527065010 61 37 0.0 1.0 0.00 0.00 0.00 95 1016.4
20220527064510 61 336 0.0 0.0 0.00 0.00 0.00 95 1016.4
20220527064010 61 300 0.0 0.0 0.00 0.00 0.00 94 1016.5
20220527063509 61 270 0.0 1.0 0.00 0.00 0.00 94 1016.6
20220527063008 61 270 0.0 2.0 0.00 0.00 0.00 94 1016.6
20220527062507 61 281 0.0 2.0 0.00 0.00 0.00 94 1016.7
20220527062008 61 68 0.0 1.0 0.00 0.00 0.00 94 1016.7
20220527061520 61 132 0.0 0.0 0.00 0.00 0.00 94 1016.7
20220527061008 61 181 0.0 1.0 0.00 0.00 0.00 94 1016.8
20220527060507 61 1 0.0 3.0 0.00 0.00 0.00 94 1016.9
20220527060005 61 274 0.0 3.0 0.00 0.00 0.00 94 1016.9
20220527055607 61 71 0.0 0.0 0.00 0.00 0.00 94 1017.1
20220527055003 61 71 0.0 1.0 0.00 0.00 0.00 94 1017.1
20220527054510 61 70 0.0 1.0 0.00 0.00 0.00 94 1017.1
20220527054010 61 79 0.0 2.0 0.00 0.00 0.00 94 1017.2
20220527053502 61 63 0.0 2.0 0.00 0.00 0.00 94 1017.4
20220527053002 61 13 0.0 1.0 0.00 0.00 0.00 94 1017.3
20220527052501 61 248 0.0 3.0 0.00 0.00 0.00 94 1017.5
20220527052100 61 219 0.0 3.0 0.00 0.00 0.00 94 1017.5
20220527051600 61 239 0.0 2.0 0.00 0.00 0.00 94 1017.6
20220527051059 61 250 0.0 2.0 0.00 0.00 0.00 94 1017.6
20220527050558 61 271 0.0 2.0 0.00 0.00 0.00 94 1017.7
20220527050058 60 338 0.0 4.0 0.00 0.00 0.00 94 1017.7
20220527045557 60 87 0.0 1.0 0.00 0.00 0.00 94 1017.7
20220527045056 60 172 0.0 1.0 0.00 0.00 0.00 94 1017.7
20220527044556 60 73 0.0 1.0 0.00 0.00 0.00 94 1017.8
20220527044055 60 236 0.0 1.0 0.00 0.00 0.00 94 1017.8
20220527043555 60 253 0.0 1.0 0.00 0.00 0.00 93 1017.9
20220527043053 60 253 0.0 1.0 0.00 0.00 0.00 94 1017.9
20220527042555 60 53 0.0 1.0 0.00 0.00 0.00 94 1018.1
20220527042052 60 360 0.0 3.0 0.00 0.00 0.00 94 1018.1
20220527041558 60 272 0.0 3.0 0.00 0.00 0.00 94 1018.2
20220527041049 60 75 0.0 1.0 0.00 0.00 0.00 94 1018.4
20220527040548 60 23 0.0 1.0 0.00 0.00 0.00 94 1018.3
20220527040048 59 228 0.0 4.0 0.00 0.00 0.00 94 1018.4
20220527035547 59 319 0.0 2.0 0.00 0.00 0.00 94 1018.6
20220527035054 59 319 0.0 2.0 0.00 0.00 0.00 94 1018.5
20220527034553 59 292 0.0 1.0 0.00 0.00 0.00 93 1018.6
20220527034056 59 252 0.0 1.0 0.00 0.00 0.00 93 1018.6
20220527033552 59 221 0.0 1.0 0.00 0.00 0.00 93 1018.7
20220527033053 59 96 0.0 2.0 0.00 0.00 0.00 93 1018.7
20220527032551 59 261 0.0 2.0 0.00 0.00 0.00 93 1018.8
20220527032050 59 279 0.0 3.0 0.00 0.00 0.00 93 1018.9
20220527031549 59 84 0.0 3.0 0.00 0.00 0.00 93 1019.0
20220527031049 59 246 0.0 2.0 0.00 0.00 0.00 93 1019.1
20220527030548 59 240 0.0 3.0 0.00 0.00 0.00 93 1019.2
20220527030049 59 299 0.0 3.0 0.00 0.00 0.00 93 1019.2
20220527025547 59 60 0.0 0.0 0.00 0.00 0.00 93 1019.3
20220527025042 59 266 0.0 0.0 0.00 0.00 0.00 93 1019.4
20220527024542 59 77 0.0 0.0 0.00 0.00 0.00 93 1019.3
20220527024043 59 127 0.0 0.0 0.00 0.00 0.00 92 1019.4
20220527023541 59 239 0.0 2.0 0.00 0.00 0.00 92 1019.5
20220527023050 59 333 0.0 2.0 0.00 0.00 0.00 92 1019.6
20220527022542 59 251 0.0 2.0 0.00 0.00 0.00 92 1019.5
20220527022040 59 274 0.0 2.0 0.00 0.00 0.00 92 1019.6